Temp
-6 -6 -6 -6 -6 -5 -5 -5 -5 -5 -5 -5 -5 -5 -5 -5 -6 -6 -5 -5 -5 -5 -5 -5 -6 -6 -6 -6 -7 -7 -7 -7 -7 -6 -7 -7 -6 -6 -6 -6 -6 -6 -6
-6 -6 -6 -6 -6 -6 -6 -6 -6 -5 -5 -5 -5 -5 -5 -5 -6 -5 -5 -5 -5 -5 -5 -5 -5 -5 -6 -6 -6 -6 -7 -7 -7 -6 -6 -6 -6 -6 -6 -6 -6 -6 -6
-6 -6 -6 -6 -6 -6 -6 -6 -6 -6 -5 -5 -5 -5 -6 -6 -6 -6 -5 -5 -5 -5 -5 -5 -5 -5 -5 -6 -6 -6 -6 -6 -6 -6 -6 -6 -6 -6 -6 -6 -6 -6 -6
-5 -6 -5 -6 -6 -6 -6 -6 -6 -6 -6 -6 -6 -6 -6 -6 -6 -6 -5 -5 -5 -5 -6 -5 -5 -5 -5 -5 -5 -5 -5 -6 -6 -6 -6 -6 -6 -6 -6 -6 -6 -6 -6
-6 -5 -6 -3 -6 -7 -6 -6 -6 -6 -6 -6 -6 -6 -6 -6 -6 -6 -6 -5 -5 -5 -5 -5 -5 -5 -5 -5 -5 -5 -5 -5 -5 -5 -5 -5 -5 -5 -6 -6 -6 -6 -6
-7 -6 -6 -6 -6 -6 -7 -7 -6 -6 -6 -6 -6 -6 -6 -6 -6 -6 -6 -5 -5 -5 -6 -5 -6 -5 -5 -5 -6 -6 -6 -5 -5 -5 -5 -5 -5 -5 -5 -5 -5 -5 -5
-7 -7 -7 -7 -7 -7 -7 -7 -6 -6 -6 -6 -6 -6 -6 -6 -6 -6 -6 -6 -5 -5 -5 -5 -6 -6 -5 -6 -6 -6 -6 -6 -6 -6 -6 -5 -5 -4 -5 -5 -5 -5 -5
-7 -7 -7 -8 -8 -8 -7 -6 -6 -6 -6 -6 -6 -6 -6 -6 -6 -6 -6 -6 -6 -6 -6 -5 -5 -6 -6 -5 -5 -6 -6 -6 -6 -6 -6 -6 -5 -5 -5 -5 -5 -4 -5
-8 -7 -7 -7 -7 -8 -7 -7 -6 -6 -6 -6 -7 -7 -6 -6 -6 -6 -6 -6 -6 -6 -6 -6 -6 -6 -6 -6 -5 -5 -5 -6 -5 -5 -5 -5 -5 -6 -5 -5 -5 -4 -5
-8 -8 -8 -7 -7 -7 -7 -8 -8 -7 -7 -7 -7 -7 -7 -7 -7 -7 -6 -6 -6 -6 -6 -6 -6 -6 -6 -6 -6 -5 -5 -6 -5 -5 -5 -5 -6 -6 -6 -5 -5 -5 -5
-8 -8 -8 -8 -8 -8 -7 -7 -7 -7 -8 -8 -8 -8 -8 -7 -7 -7 -7 -6 -6 -6 -6 -6 -6 -6 -6 -6 -5 -5 -5 -5 -5 -4 -5 -5 -6 -6 -6 -6 -5 -5 -5
-9 -9 -8 -8 -8 -8 -8 -8 -7 -8 -8 -8 -8 -8 -8 -7 -7 -7 -7 -7 -7 -6 -5 -5 -6 -6 -6 -6 -6 -6 -6 -5 -5 -5 -5 -5 -6 -6 -5 -5 -5 -5 -5
-9 -9 -9 -9 -9 -9 -9 -8 -8 -8 -8 -8 -8 -8 -8 -8 -8 -7 -7 -7 -7 -7 -6 -6 -5 -5 -5 -6 -6 -6 -6 -5 -5 -5 -5 -6 -6 -6 -6 -5 -5 -5 -5
-10 -10 -9 -9 -9 -9 -9 -9 -9 -9 -8 -7 -7 -7 -7 -8 -8 -8 -8 -7 -7 -7 -7 -7 -6 -6 -6 -6 -6 -6 -6 -6 -5 -5 -5 -6 -6 -6 -6 -6 -5 -5 -5
-10 -10 -10 -10 -10 -10 -9 -9 -9 -9 -9 -8 -7 -7 -7 -8 -8 -9 -9 -9 -8 -7 -7 -7 -7 -7 -6 -7 -6 -6 -6 -6 -5 -6 -5 -5 -5 -5 -5 -6 -5 -5 -5
-12 -11 -11 -11 -10 -10 -10 -10 -10 -9 -9 -9 -9 -8 -7 -7 -8 -8 -8 -8 -8 -8 -8 -8 -7 -7 -7 -7 -7 -7 -6 -6 -6 -6 -5 -5 -5 -5 -5 -5 -6 -6 -5
-12 -12 -12 -12 -12 -11 -11 -10 -10 -10 -9 -9 -9 -9 -9 -8 -8 -8 -8 -8 -8 -8 -8 -8 -8 -8 -7 -7 -7 -7 -7 -6 -6 -6 -5 -6 -6 -5 -5 -5 -5 -5 -5
-14 -14 -14 -13 -13 -12 -12 -11 -11 -10 -10 -10 -10 -10 -9 -9 -9 -9 -8 -7 -8 -7 -8 -7 -7 -8 -8 -8 -7 -7 -7 -7 -6 -6 -6 -6 -5 -6 -6 -6 -5 -5 -5
-15 -15 -15 -14 -14 -13 -13 -13 -12 -11 -11 -10 -10 -10 -9 -9 -9 -9 -9 -8 -8 -7 -8 -7 -7 -7 -7 -7 -7 -7 -7 -7 -7 -7 -6 -7 -6 -6 -6 -6 -6 -6 -6
-15 -15 -16 -16 -15 -15 -15 -14 -14 -13 -12 -11 -11 -11 -10 -10 -9 -9 -8 -8 -8 -8 -7 -7 -7 -7 -7 -8 -7 -7 -7 -6 -7 -7 -6 -6 -6 -6 -6 -6 -6 -7 -7
-16 -16 -16 -16 -16 -16 -16 -16 -16 -15 -13 -12 -12 -12 -12 -11 -10 -9 -9 -9 -8 -8 -8 -8 -8 -8 -7 -8 -8 -8 -7 -7 -7 -7 -6 -6 -6 -6 -6 -6 -7 -7 -7
-16 -16 -17 -17 -17 -16 -16 -16 -16 -16 -16 -14 -13 -13 -13 -12 -12 -11 -10 -9 -9 -9 -8 -8 -8 -7 -8 -8 -8 -8 -7 -8 -6 -7 -6 -6 -6 -6 -4 -6 -6 -6 -7
-18 -18 -18 -18 -18 -18 -17 -17 -17 -17 -16 -16 -15 -14 -13 -13 -13 -13 -12 -12 -11 -9 -9 -8 -8 -8 -8 -8 -8 -8 -8 -8 -7 -7 -7 -7 -7 -6 -6 -6 -7 -6 -6
-19 -19 -20 -20 -20 -20 -19 -19 -18 -18 -17 -17 -16 -16 -15 -14 -13 -13 -13 -12 -12 -11 -10 -9 -8 -8 -8 -8 -8 -8 -8 -8 -8 -8 -7 -7 -7 -7 -7 -7 -7 -7 -7
-22 -22 -21 -21 -20 -20 -20 -19 -19 -19 -18 -18 -17 -17 -16 -16 -15 -14 -13 -13 -12 -12 -12 -11 -10 -9 -8 -8 -8 -8 -9 -9 -8 -8 -7 -7 -7 -7 -7 -7 -7 -7 -7
-22 -22 -22 -22 -21 -20 -20 -19 -19 -19 -18 -18 -18 -17 -17 -16 -16 -15 -15 -15 -14 -13 -13 -12 -11 -10 -9 -9 -9 -9 -9 -9 -8 -8 -8 -9 -8 -7 -7 -8 -8 -8 -8
Height
5922 5924 5928 5932 5937 5941 5943 5946 5946 5946 5952 5956 5958 5962 5964 5964 5963 5966 5968 5969 5971 5971 5972 5974 5975 5976 5977 5978 5979 5980 5980 5981 5982 5984 5985 5985 5986 5986 5985 5985 5983 5984 5982
5914 5918 5924 5928 5932 5937 5940 5942 5944 5943 5950 5955 5958 5962 5964 5963 5963 5966 5968 5969 5969 5970 5971 5972 5974 5975 5976 5977 5979 5979 5979 5979 5980 5981 5982 5982 5984 5983 5983 5983 5982 5982 5980
5911 5914 5917 5922 5928 5933 5936 5940 5942 5944 5944 5950 5954 5956 5958 5959 5962 5966 5968 5968 5969 5969 5970 5971 5972 5973 5974 5975 5976 5977 5978 5978 5978 5979 5979 5980 5980 5980 5980 5980 5980 5978 5977
5906 5897 5911 5917 5921 5928 5933 5935 5938 5940 5943 5944 5947 5950 5952 5957 5960 5963 5965 5967 5967 5968 5968 5969 5969 5971 5972 5973 5973 5974 5975 5975 5975 5976 5976 5976 5977 5976 5977 5976 5975 5974 5974
5901 5895 5909 5901 5916 5920 5925 5932 5934 5937 5939 5941 5944 5947 5950 5953 5956 5958 5960 5962 5964 5965 5966 5966 5966 5968 5968 5969 5969 5970 5971 5971 5971 5972 5972 5972 5972 5972 5972 5972 5971 5970 5967
5895 5900 5899 5911 5886 5913 5917 5921 5926 5930 5933 5937 5940 5943 5945 5948 5949 5952 5954 5956 5958 5961 5962 5963 5963 5964 5964 5965 5966 5966 5966 5966 5966 5967 5966 5966 5967 5966 5966 5966 5965 5965 5963
5891 5894 5897 5902 5905 5908 5911 5914 5918 5921 5925 5929 5932 5936 5939 5942 5943 5945 5947 5949 5951 5954 5956 5958 5959 5960 5960 5961 5961 5961 5962 5962 5961 5962 5962 5961 5962 5961 5961 5960 5959 5959 5958
5891 5893 5894 5895 5899 5902 5905 5908 5911 5913 5917 5921 5925 5928 5931 5935 5936 5938 5939 5941 5944 5947 5950 5951 5953 5954 5955 5955 5955 5956 5956 5956 5956 5956 5957 5956 5957 5956 5957 5956 5955 5955 5953
5881 5884 5887 5892 5895 5897 5900 5902 5904 5907 5909 5913 5916 5919 5923 5926 5928 5929 5930 5933 5936 5940 5942 5944 5945 5947 5948 5948 5949 5950 5950 5951 5950 5950 5951 5952 5951 5950 5950 5951 5950 5950 5949
5868 5872 5876 5879 5882 5886 5889 5892 5895 5898 5901 5905 5907 5910 5913 5917 5919 5920 5921 5923 5928 5931 5933 5935 5937 5938 5938 5938 5939 5941 5945 5944 5943 5944 5946 5946 5946 5946 5944 5944 5944 5945 5944
5858 5861 5864 5867 5871 5874 5878 5882 5885 5888 5892 5895 5898 5901 5904 5906 5908 5909 5911 5912 5915 5918 5922 5925 5927 5928 5927 5928 5930 5932 5937 5935 5936 5937 5939 5940 5940 5939 5938 5936 5937 5937 5938
5846 5849 5853 5856 5858 5861 5866 5869 5873 5877 5880 5884 5888 5891 5894 5895 5898 5898 5898 5900 5902 5905 5911 5914 5916 5918 5921 5922 5922 5926 5927 5926 5927 5929 5931 5932 5932 5932 5931 5930 5930 5931 5930
5833 5837 5840 5844 5847 5849 5852 5855 5860 5864 5868 5873 5876 5880 5882 5886 5885 5883 5887 5889 5891 5895 5900 5904 5906 5909 5912 5914 5916 5917 5919 5920 5921 5921 5923 5923 5922 5922 5923 5924 5923 5923 5925
5819 5822 5825 5829 5832 5836 5839 5842 5845 5848 5853 5859 5862 5866 5869 5872 5873 5874 5876 5877 5881 5884 5887 5890 5895 5896 5898 5901 5902 5904 5906 5909 5911 5912 5914 5914 5913 5913 5913 5915 5915 5915 5916
5803 5806 5809 5812 5816 5820 5823 5827 5831 5834 5837 5841 5847 5851 5854 5858 5860 5862 5863 5867 5869 5872 5875 5878 5882 5883 5885 5886 5888 5890 5893 5896 5899 5900 5900 5902 5902 5902 5903 5904 5905 5906 5907
5789 5790 5792 5795 5798 5801 5804 5809 5813 5817 5821 5825 5829 5833 5838 5842 5844 5847 5851 5854 5857 5859 5863 5865 5868 5869 5871 5872 5874 5877 5879 5882 5886 5886 5888 5889 5890 5893 5893 5892 5892 5894 5896
5772 5774 5775 5777 5779 5781 5783 5788 5793 5798 5800 5805 5810 5814 5819 5825 5826 5829 5833 5838 5842 5845 5850 5852 5854 5856 5859 5860 5862 5864 5867 5868 5869 5872 5877 5877 5875 5873 5877 5882 5881 5881 5883
5753 5754 5756 5758 5759 5762 5764 5766 5770 5775 5781 5785 5791 5794 5799 5804 5808 5812 5816 5820 5823 5826 5833 5838 5841 5843 5845 5846 5848 5851 5853 5856 5856 5858 5860 5861 5860 5856 5864 5864 5867 5867 5868
5737 5737 5737 5738 5739 5741 5742 5744 5747 5750 5756 5762 5768 5771 5777 5781 5785 5792 5796 5801 5805 5809 5812 5820 5824 5827 5830 5832 5835 5838 5839 5842 5842 5842 5845 5843 5845 5844 5847 5848 5853 5853 5854
5716 5717 5718 5719 5719 5719 5719 5721 5723 5725 5730 5736 5742 5748 5751 5754 5760 5769 5774 5782 5787 5791 5794 5799 5805 5810 5813 5816 5819 5821 5824 5826 5828 5829 5830 5831 5830 5830 5832 5833 5835 5837 5840
5695 5695 5694 5695 5695 5696 5697 5698 5699 5699 5702 5709 5717 5723 5727 5726 5733 5741 5750 5756 5765 5769 5775 5780 5785 5791 5795 5799 5803 5806 5807 5810 5811 5815 5815 5816 5817 5818 5819 5816 5814 5819 5823
5670 5670 5669 5668 5667 5668 5669 5670 5672 5674 5677 5680 5688 5696 5700 5701 5708 5716 5724 5733 5743 5746 5750 5758 5765 5770 5776 5781 5785 5789 5792 5794 5796 5799 5800 5800 5803 5806 5783 5800 5804 5800 5804
5648 5646 5643 5641 5638 5638 5640 5642 5643 5645 5650 5655 5659 5666 5673 5679 5686 5692 5698 5706 5712 5719 5727 5733 5741 5749 5755 5761 5768 5772 5776 5779 5782 5784 5786 5785 5786 5785 5781 5780 5797 5783 5795
5626 5624 5620 5617 5615 5614 5614 5615 5618 5621 5625 5629 5634 5638 5645 5653 5661 5670 5676 5682 5689 5694 5701 5708 5716 5724 5732 5740 5747 5753 5759 5764 5766 5769 5772 5773 5774 5774 5775 5779 5783 5785 5785
5610 5606 5602 5599 5597 5595 5595 5596 5598 5600 5603 5606 5611 5614 5620 5629 5637 5645 5652 5658 5663 5670 5676 5683 5691 5699 5708 5717 5725 5733 5741 5746 5750 5752 5755 5759 5762 5762 5763 5765 5766 5768 5769
5595 5592 5588 5583 5581 5580 5580 5580 5581 5582 5584 5587 5590 5595 5601 5608 5616 5623 5629 5635 5640 5645 5652 5659 5665 5674 5684 5692 5702 5712 5721 5727 5731 5734 5737 5740 5744 5745 5747 5747 5748 5751 5752
Wind_Speed
22 21 23 21 18 15 14 15 17 20 14 10 8 7 6 3 2 3 5 6 8 8 7 7 8 7 7 8 7 7 7 6 7 7 6 7 7 7 7 8 10 11 11
27 23 22 24 20 18 16 16 17 20 17 13 12 13 10 5 2 5 6 6 8 9 10 10 9 8 8 8 8 9 9 9 8 9 8 9 9 9 9 10 11 11 13
20 22 24 24 24 22 20 17 16 18 20 17 15 14 11 7 7 8 8 8 7 7 8 11 11 11 11 11 11 11 10 10 10 10 10 10 11 11 12 13 13 14 14
31 26 20 24 24 26 25 22 20 19 19 20 18 16 15 15 14 13 12 11 10 10 9 9 9 10 12 13 14 14 13 13 12 12 12 12 12 14 14 14 16 16 16
21 20 31 20 25 22 23 27 26 23 22 22 23 22 21 20 20 20 17 15 14 13 12 12 11 11 11 12 13 14 16 17 18 18 18 17 17 17 18 18 19 19 22
23 25 28 27 25 24 25 25 27 28 27 25 23 25 25 23 24 24 23 21 19 18 16 15 14 14 15 14 14 14 14 15 16 17 18 19 20 20 21 21 21 21 24
24 21 27 28 25 24 24 25 28 29 30 30 30 28 27 27 28 28 28 28 26 24 22 21 19 18 18 17 18 18 18 17 18 18 19 21 19 20 19 19 18 17 18
34 30 29 27 27 30 30 28 28 30 31 30 30 32 32 30 31 32 32 31 29 28 27 27 25 24 23 23 22 21 21 21 23 21 21 22 18 19 19 20 20 17 17
41 40 38 36 34 32 32 33 32 30 30 30 32 32 33 33 35 35 37 36 33 31 30 31 31 29 28 29 28 27 25 25 27 25 23 22 22 21 20 17 20 18 17
45 44 44 42 41 41 39 38 36 38 39 37 36 35 33 34 36 38 40 40 38 36 36 36 35 34 34 35 35 32 28 30 30 29 25 24 24 24 25 22 20 18 19
49 48 48 48 46 45 44 44 43 42 43 44 42 39 35 34 38 41 43 44 43 42 41 40 40 40 40 40 39 37 31 33 32 30 29 26 25 26 28 28 25 21 20
52 52 52 52 52 52 49 48 47 45 42 39 44 40 40 40 43 45 42 42 45 45 45 44 44 44 43 43 42 38 36 37 35 30 29 27 28 30 31 31 29 26 25
56 55 55 55 55 55 56 56 54 51 49 44 42 47 46 42 42 50 43 42 42 41 43 45 44 45 45 44 42 43 42 40 37 34 30 29 32 33 32 31 31 29 26
61 60 60 60 60 60 59 59 59 59 57 52 50 51 52 49 45 44 44 45 41 42 45 43 43 43 44 45 44 43 43 43 42 41 38 35 36 37 36 34 33 31 29
64 64 64 65 65 64 64 64 63 62 63 61 57 57 57 55 53 53 48 45 44 48 45 44 42 40 39 41 43 46 46 44 44 45 45 43 42 42 40 39 37 36 34
60 62 64 66 68 69 70 69 68 69 68 66 65 63 62 63 61 58 58 56 51 48 43 42 45 46 43 43 42 42 44 45 45 48 49 49 48 45 44 43 42 39 36
62 64 64 65 66 70 72 74 73 71 74 73 72 71 69 67 67 65 63 61 59 56 52 48 46 48 51 53 50 47 45 42 43 46 47 51 54 51 48 48 47 45 42
56 60 64 68 70 72 74 75 78 77 75 77 76 75 75 73 73 73 69 66 65 63 58 53 50 49 49 51 54 52 47 47 48 49 44 47 50 65 54 47 52 50 47
58 57 59 61 67 72 74 76 79 81 81 80 79 80 81 80 80 77 76 73 71 69 67 61 56 55 54 53 54 53 48 48 50 47 45 51 50 55 49 49 53 49 49
67 69 71 71 70 68 69 73 77 82 83 83 82 79 80 85 86 83 82 78 77 75 73 69 63 59 59 57 56 52 52 49 48 50 46 44 49 52 52 49 50 49 47
76 76 78 80 80 79 79 74 77 80 83 83 82 79 77 81 83 86 85 85 82 81 78 76 72 67 63 62 59 56 57 62 54 58 51 49 48 54 49 55 50 48 46
81 82 83 84 84 84 86 85 84 83 80 82 82 81 80 81 81 83 83 84 83 85 86 82 78 76 71 65 64 59 59 57 56 55 55 56 56 56 45 50 49 51 46
75 75 75 78 78 79 79 78 76 78 79 78 80 79 80 82 78 77 77 75 78 83 86 88 85 81 78 74 69 64 63 57 55 54 51 49 52 60 52 38 44 45 48
63 64 62 63 62 63 63 64 64 68 70 73 75 75 76 78 79 77 77 76 73 75 80 85 88 88 85 80 77 70 65 65 61 62 58 54 54 52 55 57 54 49 46
49 50 52 53 52 51 50 51 52 53 57 61 65 69 70 72 72 74 76 76 75 75 76 79 83 87 89 87 82 75 66 60 62 61 62 60 61 58 62 59 59 53 48
44 42 43 46 44 44 45 45 47 49 51 55 58 60 64 65 66 69 70 70 71 74 75 75 79 83 88 89 85 80 73 63 61 62 58 52 53 50 52 50 51 57 45
Wind_Direction
223 219 216 217 225 230 227 227 229 234 228 225 213 225 226 224 194 253 244 238 243 241 234 226 210 216 219 209 204 206 208 209 217 214 224 236 248 249 261 266 269 272 285
215 217 223 220 222 228 229 226 230 241 232 218 218 220 226 210 240 256 253 257 243 249 254 245 242 235 228 230 231 224 216 219 223 228 230 242 251 256 262 269 276 283 279
218 223 219 222 225 227 232 232 233 236 246 239 223 230 241 244 240 249 256 252 256 259 258 257 255 250 248 247 247 246 240 236 235 237 243 247 255 257 267 273 281 283 286
219 207 218 225 225 229 232 232 233 233 234 243 248 243 240 241 243 247 249 252 248 247 253 261 264 262 257 254 256 258 258 258 256 254 256 258 259 266 267 275 279 282 287
238 228 229 200 226 227 236 239 235 235 236 233 236 238 238 236 237 239 244 248 248 249 247 249 253 258 265 267 266 266 265 263 264 265 266 265 265 266 270 272 276 282 286
232 229 241 236 235 227 227 231 235 237 238 240 239 240 240 238 240 240 241 240 243 245 248 249 249 252 252 256 263 265 267 267 269 268 270 271 271 271 274 280 280 278 279
257 239 243 246 242 237 234 233 231 235 237 238 240 240 244 245 246 244 242 242 242 239 242 245 249 252 257 256 256 259 262 265 269 271 273 274 276 273 279 282 284 288 289
246 247 247 259 259 250 244 241 240 237 238 240 242 243 243 244 248 249 248 248 247 245 243 244 244 248 252 257 261 261 263 265 263 266 269 276 280 280 273 273 276 281 291
252 254 252 247 247 251 251 248 248 242 241 243 246 247 246 245 244 247 251 249 247 247 246 246 247 249 254 255 254 258 259 264 268 269 267 270 278 283 283 279 273 275 277
257 256 257 257 256 254 255 255 256 249 251 247 247 246 248 248 248 248 248 250 250 247 248 248 248 248 250 254 257 256 258 264 263 266 268 273 275 275 279 282 277 271 271
255 256 258 258 257 257 257 256 257 259 251 248 245 245 248 245 253 251 250 250 249 248 248 250 250 249 249 251 254 258 261 258 262 265 267 267 265 268 272 273 272 271 268
254 255 255 257 259 261 258 257 258 259 259 259 244 248 252 255 257 254 246 249 251 250 250 250 250 251 254 257 258 259 259 259 260 261 266 270 268 265 265 269 271 273 276
256 255 255 255 256 257 260 262 260 257 257 255 252 246 256 262 260 257 249 245 249 251 255 254 253 254 255 256 261 265 265 266 266 264 259 259 263 267 268 268 270 270 263
257 257 257 257 256 255 256 258 260 262 260 256 252 249 252 257 260 258 259 253 252 255 253 254 256 253 257 257 257 257 258 262 265 265 263 258 258 262 266 269 272 273 272
259 259 258 258 258 258 257 257 257 258 260 259 256 252 252 256 257 258 254 253 260 260 263 261 248 251 253 258 258 257 256 256 258 261 263 262 260 260 264 267 267 268 270
260 260 260 260 258 258 258 257 256 256 257 258 258 256 254 254 256 256 257 261 257 257 262 263 258 259 256 258 258 259 259 259 256 257 259 261 261 261 263 264 266 269 268
266 264 264 263 262 261 259 257 256 255 254 255 256 256 256 255 258 258 257 258 259 258 257 261 263 263 261 263 265 260 255 258 260 259 257 258 260 257 258 262 264 266 268
270 270 268 266 265 263 261 261 259 258 256 255 254 255 255 254 255 257 258 258 258 259 257 256 260 263 264 265 263 263 257 261 260 264 259 263 253 258 254 256 259 260 264
269 270 273 274 272 268 265 263 260 259 257 256 256 256 255 254 253 252 253 256 256 258 260 257 256 256 262 264 267 263 265 260 266 260 263 266 265 266 265 260 259 258 259
264 266 271 272 274 273 271 266 264 261 258 256 255 255 255 254 253 253 252 252 253 255 257 258 257 257 258 261 264 265 263 259 261 264 264 263 260 262 259 257 257 255 255
272 270 270 270 270 270 269 269 265 261 260 257 254 253 254 254 252 252 252 251 251 252 252 254 257 256 256 258 261 262 263 262 261 262 256 262 263 257 265 258 252 251 251
272 274 275 274 273 271 272 269 265 261 259 257 254 250 251 252 252 252 252 252 252 251 251 251 251 254 254 255 258 261 262 269 268 254 258 264 258 256 251 260 263 254 248
274 273 273 271 271 270 268 266 263 257 254 256 255 250 246 247 249 251 251 251 250 250 249 250 250 250 253 254 254 257 259 262 262 259 259 270 264 252 262 251 263 258 267
275 274 274 272 270 269 269 265 260 258 253 252 254 253 246 243 243 246 249 251 251 251 250 248 248 248 249 251 252 254 255 257 261 261 265 263 260 262 261 262 261 256 256
281 280 280 277 274 271 268 266 261 257 255 253 252 251 247 242 241 242 246 248 251 252 251 251 248 246 247 249 251 252 254 256 257 256 256 257 258 261 262 262 260 263 261
286 282 280 276 271 267 264 262 261 260 255 252 250 246 243 238 239 242 244 248 250 252 253 253 248 245 244 246 248 251 251 250 249 249 252 251 253 254 253 258 261 259 255